Location: Unspecified
(16.9653°N, 0.0000°E)
Time: 14:10:57
(UTC+00:00)

Vanguard 2 Rocket - All Passes

Search period start: 04 April 2026 00:00
Search period end: 14 April 2026 00:00
Orbit: 554 x 3286 km, 32.9° (Epoch: 29 March)

Date Brightness Start Highest point End Pass type
(mag) Time Alt. Az. Time Alt. Az. Time Alt. Az.
4 Apr - 00:06:41 10° NW 00:08:25 12° NNW 00:10:08 10° NNE night (unlit)
4 Apr - 02:20:38 10° NNW 02:22:47 13° NNE 02:25:15 10° NE visible
4 Apr - 04:30:47 10° NW 04:36:10 49° NNE 04:45:20 10° ESE visible
4 Apr - 06:42:31 10° WNW 06:50:02 53° SSW 07:03:18 10° SE daylight
4 Apr - 08:58:42 10° WSW 09:06:40 20° SSW 09:17:14 10° SSE daylight
4 Apr - 18:29:14 10° SSW 18:36:20 19° SSE 18:41:28 10° ESE visible
4 Apr - 20:42:44 10° SW 20:50:44 69° SSE 20:55:33 10° ENE visible
4 Apr - 22:59:32 10° WNW 23:03:16 21° NNW 23:06:25 10° NNE night (unlit)
5 Apr - 03:26:55 10° NNW 03:31:06 28° NNE 03:37:10 10° E visible
5 Apr - 05:37:51 10° WNW 05:44:12 76° SSW 05:55:47 10° SE daylight
5 Apr - 07:51:45 10° W 07:59:32 27° SSW 08:11:10 10° SSE daylight
5 Apr - 17:24:15 10° S 17:29:47 14° SSE 17:34:18 10° SE daylight
5 Apr - 19:36:09 10° SW 19:45:25 43° SSE 19:50:58 10° E visible
5 Apr - 21:52:22 10° W 21:58:25 40° NNW 22:02:34 10° NE visible
6 Apr - 02:23:18 10° NNW 02:25:59 16° NNE 02:29:09 10° ENE visible
6 Apr - 04:33:36 10° NW 04:38:55 70° NNE 04:48:09 10° ESE visible
6 Apr - 06:46:00 10° W 06:53:01 36° SSW 07:04:33 10° SSE daylight
6 Apr - 09:05:35 10° SW 09:10:08 12° SSW 09:15:24 10° S daylight
6 Apr - 18:29:39 10° SSW 18:39:35 30° SSE 18:45:52 10° E visible
6 Apr - 20:45:10 10° WSW 20:53:34 76° NNW 20:58:32 10° NE visible
6 Apr - 23:03:25 10° WNW 23:06:20 15° NNW 23:08:53 10° NNE night (unlit)
7 Apr - 03:29:37 10° NW 03:33:58 38° NNE 03:40:32 10° E visible
7 Apr - 05:41:02 10° WNW 05:47:05 51° SSW 05:57:39 10° SE daylight
7 Apr - 07:56:41 10° WSW 08:02:49 17° SSW 08:10:58 10° S daylight
7 Apr - 17:23:25 10° SSW 17:33:10 22° SSE 17:39:58 10° ESE daylight
7 Apr - 19:37:55 10° SW 19:48:22 67° SSE 19:54:14 10° ENE visible
7 Apr - 21:55:43 10° W 22:01:17 28° NNW 22:05:13 10° NNE visible
8 Apr - 02:25:50 10° NNW 02:29:02 20° NNE 02:33:00 10° ENE visible
8 Apr - 04:36:31 10° WNW 04:41:42 80° SSW 04:50:38 10° SE visible
8 Apr - 06:50:04 10° WSW 06:56:11 24° SSW 07:05:14 10° SSE daylight
8 Apr - 16:17:49 10° S 16:26:08 16° SSE 16:32:39 10° ESE daylight
8 Apr - 18:30:45 10° SW 18:42:39 46° SSE 18:49:33 10° E visible
8 Apr - 20:47:56 10° WSW 20:56:20 52° NNW 21:01:22 10° NE visible
8 Apr - 23:07:27 10° NW 23:09:30 12° NNW 23:11:21 10° N night (unlit)
9 Apr - 01:22:19 10° N 01:23:51 12° NNE 01:25:26 10° NE night (unlit)
9 Apr - 03:32:21 10° NW 03:36:46 58° NNE 03:43:36 10° ESE visible
9 Apr - 05:44:33 10° W 05:50:07 33° SSW 05:59:03 10° SSE daylight
9 Apr - 15:14:23 10° S 15:18:24 11° SSE 15:22:03 10° SE daylight
9 Apr - 17:23:47 10° SSW 17:36:20 33° SSE 17:44:14 10° E daylight
9 Apr - 19:40:06 10° WSW 19:51:10 85° NNW 19:57:16 10° ENE visible
9 Apr - 21:59:18 10° WNW 22:04:14 21° NNW 22:07:53 10° NNE visible
10 Apr - 02:28:23 10° NW 02:31:59 29° NNE 02:36:36 10° E visible
10 Apr - 04:39:41 10° WNW 04:44:37 50° SSW 04:52:42 10° SE visible
10 Apr - 06:55:17 10° SW 06:59:30 14° SSW 07:04:50 10° S daylight
10 Apr - 16:17:15 10° SSW 16:29:26 25° SSE 16:38:00 10° ESE daylight
10 Apr - 18:32:18 10° SW 18:45:31 66° SSE 18:52:49 10° ENE visible
10 Apr - 20:51:02 10° W 20:59:06 38° NNW 21:04:07 10° NE visible
10 Apr - 23:11:22 10° NNW 23:12:46 11° N 23:14:04 10° N night (unlit)
11 Apr - 01:24:31 10° NNW 01:27:00 16° NNE 01:29:40 10° ENE night (unlit)
11 Apr - 03:35:14 10° WNW 03:39:35 87° SSW 03:46:18 10° ESE visible
11 Apr - 05:48:41 10° WSW 05:53:19 20° SSW 05:59:48 10° SSE daylight
11 Apr - 15:11:32 10° S 15:21:55 18° SSE 15:30:13 10° ESE daylight
11 Apr - 17:24:46 10° SW 17:39:18 47° SSE 17:47:52 10° ENE daylight
11 Apr - 19:42:38 10° WSW 19:53:51 63° NNW 20:00:07 10° NE visible
11 Apr - 22:03:00 10° WNW 22:07:18 18° NNW 22:10:37 10° NNE visible
12 Apr - 00:20:31 10° N 00:21:40 11° N 00:22:47 10° NNE night (unlit)
12 Apr - 02:31:01 10° NW 02:34:51 46° NNE 02:39:54 10° ESE visible
12 Apr - 04:43:13 10° W 04:47:39 29° SSW 04:54:17 10° SSE visible
12 Apr - 14:08:00 10° S 14:13:44 12° SSE 14:18:59 10° SE daylight
12 Apr - 16:17:37 10° SSW 16:32:29 35° SSE 16:42:13 10° E daylight
12 Apr - 18:34:16 10° WSW 18:48:14 88° SSE 18:55:49 10° ENE visible
12 Apr - 20:54:23 10° W 21:01:57 29° NNW 21:06:52 10° NE visible
12 Apr - 23:14:33 10° NNW 23:16:05 11° N 23:17:31 10° NNE night (unlit)
13 Apr - 01:26:52 10° NNW 01:30:04 23° NNE 01:33:31 10° ENE night (unlit)
13 Apr - 03:38:20 10° WNW 03:42:29 49° SSW 03:48:36 10° SE visible
13 Apr - 05:54:47 10° SW 05:56:38 11° SSW 05:58:40 10° S daylight
13 Apr - 15:11:06 10° SSW 15:25:05 26° SSE 15:35:28 10° E daylight
13 Apr - 17:26:09 10° SW 17:42:04 65° SSE 17:51:07 10° ENE daylight
13 Apr - 19:45:29 10° W 19:56:32 48° NNW 20:02:54 10° NE visible
13 Apr - 22:06:36 10° NW 22:10:30 16° NNW 22:13:35 10° NNE visible
